Flag for Germany Weather past 2 weeks in Bad Hersfeld, Hesse, Germany

Now
34 °F

Mostly cloudy.


Feels Like: 30 °F
Forecast: 36 / 39 °F
Wind: 5 mph from South

Location: Fritzlar Airport

Current Time: Jan 26, 2015 at 6:17:27 AM

Latest Report: Jan 26, 2015 at 5:20 AM


Visibility: 5 mi

Pressure: 30.24 "Hg

Humidity: 93%

Dew point: 32 °F

Location of Bad HersfeldLocation

Historic Weather in Bad Hersfeld — Graph

°F

Bad Hersfeld temperature yesterday

Maximum temperature yesterday: 39 °F (at 2:20 PM)
Minimum temperature yesterday: 30 °F (at 1:20 AM)
Average temperature yesterday: 34 °F

Past Weeks' High & Low Weather Summary

 TemperatureHumidityPressure
High50 °F (Jan 13, 2:20 PM)100% (Jan 16, 8:20 PM)30.36 "Hg (Jan 16, 8:20 PM)
Low23 °F (Jan 19, 5:20 AM)58% (Jan 13, 2:20 PM)29.53 "Hg (Jan 15, 6:20 PM)
Average35 °F84%29.96 "Hg
* Reported Jan 11 4:20 AM — Jan 26 4:20 AM, Bad Hersfeld, Weather by CustomWeather, © 2014

Note: Actual official high and low records may vary slightly from our data, if they occured in-between our weather recording intervals... More about our weather records

Advertising

Bad Hersfeld weather history for previous 24 hours

 ConditionsComfort  
Time TempWeatherWind HumidityBarometerVisibility
4:20 AM
Jan 26
34 °FLight rain. Fog.5 mph93%30.27 "Hg3 mi
3:20 AM34 °FLight rain. Overcast.5 mph93%30.27 "Hg4 mi
2:20 AM34 °FPassing clouds.5 mph93%30.30 "Hg5 mi
1:20 AM36 °FPartly cloudy.5 mph87%30.30 "Hg5 mi
12:20 AM36 °FOvercast.3 mph87%30.30 "Hg5 mi
11:20 PM
Jan 25
36 °FOvercast.3 mph87%30.33 "Hg5 mi
10:20 PM36 °FPassing clouds.5 mph87%30.33 "Hg6 mi
9:20 PM34 °FPassing clouds.3 mph93%30.33 "HgN/A
8:20 PM34 °FPassing clouds.3 mph93%30.33 "HgN/A
7:20 PM34 °FPassing clouds.3 mph93%30.33 "HgN/A
6:20 PM34 °FPassing clouds.2 mph93%30.36 "HgN/A
5:20 PM36 °FPartly cloudy.1 mph87%30.33 "HgN/A
4:20 PM37 °FBroken clouds.2 mph87%30.33 "HgN/A
3:20 PM39 °FBroken clouds.3 mph81%30.33 "HgN/A
2:20 PM39 °FBroken clouds.2 mph81%30.33 "HgN/A
1:20 PM37 °FDrizzle. Broken clouds.2 mph87%30.33 "HgN/A
12:20 PM36 °FBroken clouds.3 mph87%30.33 "HgN/A
11:20 AM34 °FPartly sunny.2 mph93%30.36 "HgN/A
10:20 AM34 °FPartly sunny.1 mph87%30.36 "HgN/A
9:20 AM32 °FPartly sunny.2 mph100%30.36 "HgN/A
8:20 AM32 °FPartly sunny.2 mph93%30.33 "HgN/A
7:20 AM32 °FPassing clouds.2 mph87%30.33 "HgN/A
6:20 AM34 °FPassing clouds.2 mph93%30.30 "HgN/A
Weather by CustomWeather, © 2014

See weather overviewHow to use our weather pages